TimeAKDT,TemperatureF,Dew PointF,Humidity,Sea Level PressureIn,VisibilityMPH,Wind Direction,Wind SpeedMPH,Gust SpeedMPH,PrecipitationIn,Events,Conditions,WindDirDegrees,DateUTC
12:56 AM,-0.0,-13.0,54,29.76,10.0,Calm,Calm,-,N/A,,Clear,0,2013-04-06 08:56:00
1:56 AM,-6.0,-13.0,72,29.75,10.0,Calm,Calm,-,N/A,,Mostly Cloudy,0,2013-04-06 09:56:00
2:56 AM,-9.9,-15.0,78,29.74,10.0,ENE,3.5,-,N/A,,Partly Cloudy,70,2013-04-06 10:56:00
3:56 AM,-9.0,-16.1,71,29.72,10.0,Calm,Calm,-,N/A,,Overcast,0,2013-04-06 11:56:00
4:56 AM,-9.9,-16.1,74,29.71,10.0,North,3.5,-,N/A,,Scattered Clouds,360,2013-04-06 12:56:00
5:56 AM,-11.0,-17.0,75,29.70,10.0,North,3.5,-,N/A,,Clear,10,2013-04-06 13:56:00
6:56 AM,-13.0,-18.0,78,29.68,10.0,Calm,Calm,-,N/A,,Clear,0,2013-04-06 14:56:00
7:56 AM,-11.0,-17.0,75,29.68,10.0,Calm,Calm,-,N/A,,Clear,0,2013-04-06 15:56:00
8:56 AM,-5.1,-13.0,69,29.68,10.0,Calm,Calm,-,N/A,,Partly Cloudy,0,2013-04-06 16:56:00
9:56 AM,3.9,-11.0,50,29.66,10.0,Calm,Calm,-,N/A,,Clear,0,2013-04-06 17:56:00
10:56 AM,5.0,-9.9,50,29.65,10.0,Calm,Calm,-,N/A,,Clear,0,2013-04-06 18:56:00
11:56 AM,9.0,-5.1,53,29.65,10.0,West,3.5,-,N/A,,Partly Cloudy,260,2013-04-06 19:56:00
12:56 PM,14.0,-4.0,45,29.64,10.0,Calm,Calm,-,N/A,,Clear,0,2013-04-06 20:56:00
1:56 PM,18.0,-7.1,33,29.63,10.0,Calm,Calm,-,N/A,,Overcast,0,2013-04-06 21:56:00
2:56 PM,19.0,-5.1,34,29.63,10.0,East,5.8,-,N/A,,Scattered Clouds,90,2013-04-06 22:56:00
3:56 PM,19.0,-5.1,34,29.63,10.0,East,6.9,-,N/A,,Clear,80,2013-04-06 23:56:00
4:56 PM,15.1,-2.0,47,29.63,10.0,SW,8.1,-,N/A,,Clear,220,2013-04-07 00:56:00
5:56 PM,16.0,-0.0,49,29.63,10.0,WSW,8.1,-,N/A,,Overcast,240,2013-04-07 01:56:00
6:56 PM,16.0,-2.0,45,29.64,10.0,South,4.6,-,N/A,,Overcast,180,2013-04-07 02:56:00
7:56 PM,12.9,-5.1,45,29.65,10.0,East,11.5,-,N/A,,Overcast,90,2013-04-07 03:56:00
8:56 PM,10.9,-7.1,44,29.66,10.0,East,9.2,-,N/A,,Overcast,80,2013-04-07 04:56:00
9:56 PM,10.9,-8.0,42,29.66,10.0,NE,3.5,-,N/A,,Overcast,40,2013-04-07 05:56:00
10:56 PM,10.0,-8.0,44,29.67,10.0,ENE,3.5,-,N/A,,Overcast,60,2013-04-07 06:56:00
11:56 PM,9.0,-5.1,53,29.67,10.0,West,4.6,-,N/A,,Overcast,260,2013-04-07 07:56:00